Location: Windsor
(43.2292°N, 89.3015°W)
Time: 17:37:02
(UTC+00:00)

MOZHAYETS 4 - Pass Details

Date: 07 July 2022
Orbit: 660 x 678 km, 98.2° (Epoch: 19 August)

Event Time Altitude Azimuth Distance (km) Brightness Sun altitude
Exits shadow 07:33:55 11° 131° (SE) 2,031 10.0 -20.9°
Maximum altitude 07:37:49 33° 69° (ENE) 1,124 9.2 -20.6°
Drops below altitude 10° 07:41:56 10° 5° (N) 2,107 11.3 -20.3°
Sets 07:44:19 0° 356° (N) 3,022 12.1 -20.1°
